sat.trackr.live / text

‹ back to catalog

STARLINK-4104

NORAD 53163 · 2022-083AH

PAYLOAD ACTIVE UNKNOWN

§ Identity

Operator
Country
US
Launch date
2022-07-17
Launch site
AFETR
Launch vehicle
Mass (kg)
RCS (m²)

Purposes: comms

External: N2YO · Heavens-Above · Gunter

§ Orbital elements

Epoch: 2026-05-24T19:33:26.431200Z

Period
95.44 min
Inclination
53.2124°
Eccentricity
0.0001121
Mean motion
15.08833207 rev/d
Perigee alt
539.0 km
Apogee alt
540.5 km
Semi-major
6,917.9 km
B*
1.5748e-5
RAAN
182.5250°
Arg perigee
70.0136°
Mean anomaly
290.0976°
Rev number
21,285

§ Raw data

STARLINK-41041 53163U 22083AH  26144.81488925 -.00000037  00000+0  15748-4 0  99942 53163  53.2124 182.5250 0001121  70.0136 290.0976 15.08833207212850

JSON: /api/v1/satellites/53163 · /tle

For live sub-satellite position, see the globe view (requires WebGL).

§ Visibility from observer

Set your observer location to see the next 7 days of passes ≥ 10°. The values pass through the URL so the page stays shareable.

No JS? Fill the form by hand. The geolocation button needs JavaScript.